GW6237 Weather Reports


Display with metric or nautical units.
time (UTC)temp
F
wind
direction
speed
MPH
gust
MPH
rain 1hr
in
rain 24hr
in
rain mn
in
humidity
%
barometer
mb
20260504201958 76 202 17.0 25.0 0.00 0.00 0.00 39 1004.0
20260504201458 76 222 12.0 26.0 0.00 0.00 0.00 38 1004.0
20260504200958 75 205 17.0 27.0 0.00 0.00 0.00 35 1004.1
20260504200458 77 243 20.0 27.0 0.00 0.00 0.00 37 1004.3
20260504195958 77 241 15.0 21.0 0.00 0.00 0.00 39 1004.3
20260504195458 77 218 20.0 26.0 0.00 0.00 0.00 42 1004.2
20260504194958 76 217 15.0 26.0 0.00 0.00 0.00 39 1004.4
20260504194458 76 215 17.0 27.0 0.00 0.00 0.00 41 1004.4
20260504193958 76 220 17.0 27.0 0.00 0.00 0.00 37 1004.4
20260504193458 76 216 14.0 25.0 0.00 0.00 0.00 38 1004.6
20260504192958 76 206 18.0 22.0 0.00 0.00 0.00 38 1004.6
20260504192503 76 228 20.0 23.0 0.00 0.00 0.00 38 1004.7
20260504191958 75 230 17.0 25.0 0.00 0.00 0.00 37 1004.9
20260504191458 76 207 16.0 25.0 0.00 0.00 0.00 42 1004.9
20260504190958 76 219 13.0 25.0 0.00 0.00 0.00 39 1004.9
20260504190458 76 193 15.0 22.0 0.00 0.00 0.00 40 1005.0
20260504185958 75 219 15.0 24.0 0.00 0.00 0.00 39 1005.1
20260504185458 75 235 17.0 24.0 0.00 0.00 0.00 38 1005.2
20260504184958 76 219 17.0 22.0 0.00 0.00 0.00 40 1005.2
20260504184458 75 205 16.0 23.0 0.00 0.00 0.00 42 1005.3
20260504183958 75 223 14.0 24.0 0.00 0.00 0.00 44 1005.4
20260504183458 75 243 17.0 26.0 0.00 0.00 0.00 39 1005.4
20260504182959 75 223 18.0 26.0 0.00 0.00 0.00 42 1005.4
20260504182458 75 262 18.0 24.0 0.00 0.00 0.00 39 1005.6
20260504181958 75 235 17.0 24.0 0.00 0.00 0.00 41 1005.6
20260504181458 75 255 20.0 24.0 0.00 0.00 0.00 39 1005.7
20260504180958 75 215 12.0 24.0 0.00 0.00 0.00 43 1005.7
20260504180458 74 191 19.0 24.0 0.00 0.00 0.00 39 1005.7
20260504175959 74 216 10.0 26.0 0.00 0.00 0.00 42 1005.8
20260504175459 74 220 17.0 26.0 0.00 0.00 0.00 39 1005.9
20260504174958 74 197 16.0 25.0 0.00 0.00 0.00 40 1005.9
20260504174458 74 229 4.0 24.0 0.00 0.00 0.00 43 1006.1
20260504173958 74 217 19.0 27.0 0.00 0.00 0.00 43 1006.0
20260504173458 73 239 21.0 27.0 0.00 0.00 0.00 42 1006.1
20260504172958 74 228 16.0 25.0 0.00 0.00 0.00 47 1006.4
20260504172458 74 237 14.0 24.0 0.00 0.00 0.00 43 1006.3
20260504171958 74 224 16.0 22.0 0.00 0.00 0.00 43 1006.4
20260504171458 73 236 16.0 24.0 0.00 0.00 0.00 47 1006.4
20260504170958 73 232 16.0 24.0 0.00 0.00 0.00 43 1006.5
20260504170458 73 250 17.0 24.0 0.00 0.00 0.00 43 1006.6
20260504150959 68 222 10.0 15.0 0.00 0.00 0.00 55 1007.3
20260504150458 67 208 7.0 15.0 0.00 0.00 0.00 55 1007.4
20260504140958 66 216 9.0 15.0 0.00 0.00 0.00 60 1007.7
20260504140459 65 234 8.0 15.0 0.00 0.00 0.00 59 1007.7
20260504130459 62 220 10.0 16.0 0.00 0.00 0.00 64 1007.6
20260504110458 58 232 8.0 11.0 0.00 0.00 0.00 69 1006.7
20260504100458 59 226 5.0 9.0 0.00 0.00 0.00 68 1006.9
20260504081958 60 226 6.0 8.0 0.00 0.00 0.00 65 1006.9
20260504081458 60 215 7.0 8.0 0.00 0.00 0.00 66 1007.3
20260504080958 60 204 5.0 8.0 0.00 0.00 0.00 66 1006.8
20260504080458 60 211 5.0 8.0 0.00 0.00 0.00 65 1007.1
20260504050458 63 197 8.0 10.0 0.00 0.00 0.00 59 1008.1
20260504045958 64 206 9.0 10.0 0.00 0.00 0.00 59 1008.1
20260504045458 64 207 8.0 10.0 0.00 0.00 0.00 59 1008.1
20260504044958 64 191 9.0 11.0 0.00 0.00 0.00 59 1008.1
20260504044458 64 208 9.0 11.0 0.00 0.00 0.00 59 1008.1
20260504043958 64 203 7.0 10.0 0.00 0.00 0.00 58 1008.0
20260504043458 64 195 7.0 9.0 0.00 0.00 0.00 58 1008.2
20260504042958 64 198 6.0 10.0 0.00 0.00 0.00 58 1008.3
20260504042459 64 198 7.0 10.0 0.00 0.00 0.00 58 1008.3
20260504041958 64 204 7.0 10.0 0.00 0.00 0.00 58 1008.3
20260504041458 64 208 7.0 10.0 0.00 0.00 0.00 58 1008.3
20260504040958 63 199 7.0 8.0 0.00 0.00 0.00 58 1008.4
20260504040458 63 209 8.0 8.0 0.00 0.00 0.00 59 1008.4
20260504035958 63 196 6.0 8.0 0.00 0.00 0.00 60 1008.4
20260504035458 64 190 5.0 7.0 0.00 0.00 0.00 61 1008.5
20260504034958 64 193 6.0 8.0 0.00 0.00 0.00 61 1008.5
20260504034458 64 188 6.0 8.0 0.00 0.00 0.00 60 1008.5
20260504033958 64 194 6.0 8.0 0.00 0.00 0.00 59 1008.5
20260504033458 65 190 7.0 7.0 0.00 0.00 0.00 59 1008.4
20260504032958 65 187 6.0 7.0 0.00 0.00 0.00 59 1008.5
20260504032458 65 187 6.0 7.0 0.00 0.00 0.00 60 1008.5
20260504031958 65 188 6.0 7.0 0.00 0.00 0.00 59 1008.5
20260504031458 65 188 5.0 7.0 0.00 0.00 0.00 59 1008.5
20260504030958 65 197 6.0 8.0 0.00 0.00 0.00 59 1008.4
20260504030458 65 188 6.0 8.0 0.00 0.00 0.00 59 1008.3
20260504025958 65 184 6.0 7.0 0.00 0.00 0.00 58 1008.4
20260504025458 64 192 6.0 7.0 0.00 0.00 0.00 58 1008.4
20260504024958 64 196 4.0 8.0 0.00 0.00 0.00 59 1008.3
20260504024458 66 198 5.0 8.0 0.00 0.00 0.00 58 1008.5
20260504023959 65 179 7.0 8.0 0.00 0.00 0.00 59 1008.4
20260504023458 66 190 7.0 8.0 0.00 0.00 0.00 59 1008.3
20260504022958 65 186 7.0 8.0 0.00 0.00 0.00 59 1008.3
20260504022458 65 197 6.0 8.0 0.00 0.00 0.00 58 1008.5
20260504021958 66 190 6.0 7.0 0.00 0.00 0.00 57 1008.3
20260504021458 66 187 6.0 7.0 0.00 0.00 0.00 57 1008.3
20260504020958 67 188 6.0 7.0 0.00 0.00 0.00 57 1008.3
20260504020458 65 183 6.0 7.0 0.00 0.00 0.00 56 1008.4
20260504015958 67 191 6.0 7.0 0.00 0.00 0.00 57 1008.0
20260504015458 67 193 6.0 7.0 0.00 0.00 0.00 55 1008.3
20260504014959 67 193 5.0 7.0 0.00 0.00 0.00 54 1008.3
20260504014458 68 186 7.0 7.0 0.00 0.00 0.00 51 1008.3
20260504013958 68 171 5.0 5.0 0.00 0.00 0.00 50 1008.2
20260504013458 68 172 5.0 6.0 0.00 0.00 0.00 51 1008.2
20260504012958 69 176 5.0 7.0 0.00 0.00 0.00 55 1008.1
20260504012458 69 180 6.0 7.0 0.00 0.00 0.00 51 1008.1
20260504011958 70 180 6.0 7.0 0.00 0.00 0.00 49 1008.0
20260504011458 69 181 7.0 7.0 0.00 0.00 0.00 49 1008.0
20260504010958 71 186 6.0 6.0 0.00 0.00 0.00 48 1008.0
20260504010458 71 186 6.0 6.0 0.00 0.00 0.00 47 1007.9
20260504005958 72 195 5.0 6.0 0.00 0.00 0.00 47 1007.9
20260504005459 72 189 6.0 6.0 0.00 0.00 0.00 47 1007.9
20260504004958 73 182 5.0 6.0 0.00 0.00 0.00 44 1007.9
20260504004458 73 195 5.0 6.0 0.00 0.00 0.00 43 1007.9
20260504003958 72 202 5.0 8.0 0.00 0.00 0.00 47 1008.0
20260504003458 74 213 5.0 8.0 0.00 0.00 0.00 42 1008.0
20260504002958 74 227 7.0 8.0 0.00 0.00 0.00 39 1008.0
20260504002458 75 227 5.0 8.0 0.00 0.00 0.00 38 1008.0
20260504001958 75 224 5.0 8.0 0.00 0.00 0.00 38 1008.1
20260504001458 75 228 6.0 8.0 0.00 0.00 0.00 39 1008.0
20260504000958 75 223 4.0 7.0 0.00 0.00 0.00 38 1008.0
20260504000458 76 223 7.0 8.0 0.00 0.00 0.00 38 1008.1
20260503235958 75 229 6.0 10.0 0.00 0.00 0.00 36 1008.0
20260503235458 76 228 7.0 11.0 0.00 0.00 0.00 35 1007.9
20260503234958 76 228 5.0 14.0 0.00 0.00 0.00 35 1008.0
20260503234458 76 221 6.0 14.0 0.00 0.00 0.00 34 1007.9
20260503233958 75 235 9.0 12.0 0.00 0.00 0.00 33 1007.8
20260503233458 76 235 6.0 12.0 0.00 0.00 0.00 33 1007.9
20260503232958 76 220 7.0 12.0 0.00 0.00 0.00 35 1007.9
20260503232458 75 222 7.0 12.0 0.00 0.00 0.00 34 1007.9
20260503231958 76 214 8.0 14.0 0.00 0.00 0.00 33 1008.0
20260503231459 76 215 11.0 14.0 0.00 0.00 0.00 35 1008.1
20260503230959 76 225 8.0 13.0 0.00 0.00 0.00 34 1008.2
20260503230458 76 237 10.0 13.0 0.00 0.00 0.00 39 1008.2
20260503225958 76 193 7.0 13.0 0.00 0.00 0.00 34 1008.2
20260503225458 76 244 10.0 14.0 0.00 0.00 0.00 34 1008.3
20260503224958 75 244 9.0 15.0 0.00 0.00 0.00 35 1008.3
20260503224458 75 236 10.0 15.0 0.00 0.00 0.00 36 1008.3
20260503223958 76 226 11.0 15.0 0.00 0.00 0.00 41 1008.4
20260503223458 77 204 13.0 15.0 0.00 0.00 0.00 35 1008.3
20260503222958 77 261 7.0 15.0 0.00 0.00 0.00 35 1008.4
20260503222458 76 204 13.0 15.0 0.00 0.00 0.00 32 1008.4
20260503221958 76 223 10.0 15.0 0.00 0.00 0.00 33 1008.5
20260503221458 75 222 12.0 15.0 0.00 0.00 0.00 34 1008.5
20260503220958 77 226 7.0 16.0 0.00 0.00 0.00 33 1008.6
20260503220458 76 259 11.0 16.0 0.00 0.00 0.00 38 1008.7
20260503215958 76 244 13.0 16.0 0.00 0.00 0.00 34 1008.8
20260503215459 75 244 9.0 14.0 0.00 0.00 0.00 32 1008.7
20260503214958 75 220 9.0 17.0 0.00 0.00 0.00 32 1008.8
20260503214458 75 231 10.0 17.0 0.00 0.00 0.00 33 1008.8
20260503213958 76 200 15.0 17.0 0.00 0.00 0.00 37 1008.8
20260503213458 75 271 7.0 16.0 0.00 0.00 0.00 34 1008.9
20260503212958 76 236 8.0 24.0 0.00 0.00 0.00 35 1009.0
20260503212458 75 254 8.0 24.0 0.00 0.00 0.00 38 1009.2
20260503211958 75 256 9.0 21.0 0.00 0.00 0.00 32 1009.2
20260503211459 76 257 13.0 21.0 0.00 0.00 0.00 34 1009.2
20260503210958 75 209 7.0 15.0 0.00 0.00 0.00 34 1009.4
20260503210459 75 220 14.0 15.0 0.00 0.00 0.00 36 1009.4
20260503205958 75 203 7.0 18.0 0.00 0.00 0.00 37 1009.5
20260503205459 75 198 15.0 18.0 0.00 0.00 0.00 37 1009.6
20260503204959 75 232 6.0 13.0 0.00 0.00 0.00 37 1009.8
20260503204458 75 196 6.0 15.0 0.00 0.00 0.00 36 1009.9
20260503203958 74 257 10.0 17.0 0.00 0.00 0.00 36 1010.0
20260503203458 74 234 8.0 18.0 0.00 0.00 0.00 37 1010.1
20260503202958 74 211 16.0 18.0 0.00 0.00 0.00 39 1010.1
20260503202458 74 187 12.0 16.0 0.00 0.00 0.00 37 1010.1